LEMUR-2-JPGSQUARED (44855 NORAD) Tracking and Keplerian Element Data

This shows tracking and keplerian element data for the satellite.

Feedback or suggestion? Click here.




ElementValue
Catalog44855
NameLEMUR-2-JPGSQUARED
Epoch Orbit563
Epoch Day18.09505802
Epoch Year2020
RAAN272.8651
Inclination36.9685
Eccentricity0.0007728
Argument of Perigee271.0644
Mean Anonmoly88.9205
Mean Motion14.98703392
Decay Rate5.63E-06
L11 44855U 19089D 20018.09505802 .00000563 00000-0 52416-4 0 9999
L22 44855 36.9685 272.8651 0007728 271.0644 88.9205 14.98703392 5636

Live tracking and technical data element details for LEMUR-2-JPGSQUARED (NORAD 44855). LEMUR-2-JPGSQUARED can be tracked NOW for your location showing map with azimuth and elevation plus other details from your city location.

Track the satellite on the map from your city or location and see movement details for azimuth, elevation, latitude, longitude, range, height, and movement on the map or in text.







IsCatalogInMostPopularTable: catalog: 44855, numindb: 7
Update: records affected: 1



GetName: 44855 LEMUR-2-JPGSQUARED

Hit Count: updated at: Sat, 18 Jan 2020 18:34:49 GMT